User: anonymous   Login
Location: Mason Neck State Park
(38.6428°N, 77.1981°W)
Time: 01:17:30
(UTC-04:00)
Language:

Cosmos 1400 Rocket - Orbit

View from above orbital plane
View from above orbital plane
View from above satellite
View from above satellite

Ground track
Ground track

The orbit data is extracted from the following two-line orbital elements,

1 13403U 82079B   18108.87585954 +.00000703 +00000-0 +45069-4 0  9994
2 13403 081.1663 279.1455 0033887 352.3229 007.7470 15.06805297942537
Epoch (UTC): 18 April 2018 21:01:14
Eccentricity: 0.0033887
inclination: 81.1663°
perigee height: 522 km
apogee height: 569 km
right ascension of ascending node: 279.1455°
argument of perigee: 352.3229°
revolutions per day: 15.06805297
mean anomaly at epoch: 7.7470°
orbit number at epoch: 94253

The dashed part of the orbit path shows where the satellite is in the earth's shadow,  

DLR